Location: Gollag?dem
(16.8053°N, 80.8024°E)
Time: 17:47:03
(UTC+00:00)

Cosmos 1689 Rocket - Pass Details

Date: 13 August 2020
Orbit: 366 x 378 km, 97.5° (Epoch: 17 September)

Event Time Altitude Azimuth Distance (km) Brightness Sun altitude
Rises 23:22:11 0° 151° (SSE) 2,208 6.0 -14.1°
Reaches altitude 10° 23:24:16 10° 138° (SE) 1,359 5.1 -13.6°
Maximum altitude 23:26:48 28° 77° (ENE) 732 4.4 -13.0°
Drops below altitude 10° 23:29:19 10° 16° (NNE) 1,356 5.3 -12.5°
Sets 23:31:24 0° 4° (N) 2,204 6.2 -12.0°
